Location: Treviso
(45.6669°N, 12.2430°E)
Time: 04:11:16
(UTC+01:00)

ISS - Pass Details

Date: 22 February 2024
Orbit: 415 x 422 km, 51.6° (Epoch: 25 February)

Event Time Altitude Azimuth Distance (km) Brightness Sun altitude
Exits shadow 05:17:22 68° 310° (NW) 459 -3.8 -19.1°
Maximum altitude 05:17:31 70° 334° (NNW) 454 -3.8 -19.1°
Drops below altitude 10° 05:20:55 10° 59° (ENE) 1,515 0.0 -18.5°
Sets 05:23:02 0° 62° (ENE) 2,383 1.3 -18.1°
